Theta_e
359 363 365 364 363 363 362 361 361 362 363 363 363 363 363 362 362 362 362 362 362 362 360 356 356 358 360 359 359 361 361 361 361 359 359 355 353 352 350 347 345 341 344
361 364 365 365 364 362 361 360 361 361 362 363 363 362 362 361 362 362 362 362 363 360 357 354 354 356 358 357 358 361 361 361 361 360 359 355 351 350 348 346 345 341 343
361 362 364 365 365 363 361 360 360 360 362 362 362 362 361 361 362 361 362 363 362 358 355 354 354 356 357 357 357 359 360 361 361 357 357 351 347 348 346 345 344 343 342
362 361 361 365 364 362 361 360 360 360 361 362 362 361 361 361 361 362 363 362 361 357 355 354 354 354 356 357 355 357 359 359 359 359 353 353 346 347 345 344 343 343 342
360 360 361 365 364 361 360 359 360 360 360 361 361 361 361 361 362 362 362 361 360 356 355 355 354 354 354 355 355 355 356 356 357 354 349 344 341 344 344 342 342 342 340
358 359 363 364 363 362 360 359 360 359 360 361 360 360 361 361 361 361 362 361 361 359 357 356 355 355 353 353 353 354 353 354 348 346 344 346 339 346 344 342 341 341 340
356 360 362 364 363 362 361 360 359 360 359 360 360 360 360 360 361 362 362 362 362 360 357 355 355 354 352 350 351 352 352 353 342 343 343 341 341 347 343 341 340 340 339
357 360 361 363 363 362 361 360 360 360 359 359 360 360 360 360 360 361 361 362 362 361 358 356 355 353 351 349 349 350 352 348 346 342 342 340 346 345 342 341 339 339 338
356 356 358 360 361 362 361 360 360 359 359 359 359 359 359 359 360 360 360 361 360 359 358 356 354 352 350 350 348 349 351 349 339 341 342 340 347 344 342 341 339 338 337
353 355 357 359 359 358 358 361 360 359 359 359 359 359 359 359 359 360 358 359 359 358 357 355 353 351 350 349 348 348 348 347 338 339 340 340 348 345 342 340 339 338 336
351 350 353 357 358 357 357 358 359 360 359 359 359 359 356 353 355 356 357 359 358 357 357 355 352 350 349 349 349 347 346 334 334 339 339 348 348 345 342 340 339 338 336
348 348 350 354 355 356 357 355 355 355 355 354 354 354 354 352 354 356 356 359 358 358 356 354 352 350 349 335 331 337 337 334 339 338 339 348 348 345 342 340 339 337 335
350 350 351 351 353 352 353 354 354 354 354 354 353 353 351 349 351 353 349 354 350 355 346 348 344 341 337 333 329 326 331 330 338 339 343 350 348 345 343 340 339 337 335
337 351 350 350 351 350 350 352 351 351 352 352 351 350 347 346 347 350 348 349 345 345 341 339 337 336 334 332 328 327 328 332 337 338 345 350 349 345 343 340 339 337 335
307 329 350 351 350 351 349 352 350 350 350 349 349 349 347 344 345 346 346 346 344 342 339 335 333 332 330 329 328 329 328 338 338 340 343 349 348 347 343 341 339 336 335
306 334 348 349 349 348 350 350 350 349 351 349 348 348 347 343 343 342 343 344 343 341 339 335 331 330 328 330 330 330 333 338 338 339 339 344 348 346 344 341 339 337 335
304 307 343 348 349 345 348 349 349 350 351 350 348 349 348 342 340 341 343 342 343 341 338 334 332 331 330 331 329 328 337 336 338 339 339 341 342 346 345 343 338 335 333
303 306 312 349 349 345 346 348 349 350 350 350 349 348 348 345 341 340 342 342 343 339 338 334 331 330 331 330 325 329 336 336 337 339 338 338 336 338 344 344 339 334 333
306 304 308 330 347 346 345 347 347 348 349 349 348 348 347 345 343 341 342 343 341 340 338 336 331 330 329 326 325 330 337 336 336 338 339 334 333 334 332 342 340 338 337
305 304 306 311 339 347 346 344 340 339 339 340 343 347 349 348 344 342 341 343 342 339 336 334 331 327 327 325 337 338 339 339 339 336 337 334 330 330 328 330 330 332 333
304 305 305 308 314 340 341 340 340 339 340 342 342 345 345 349 348 343 341 340 341 341 338 334 330 328 325 329 335 332 331 336 337 335 335 331 329 327 328 329 326 323 323
305 305 306 308 311 334 341 342 339 342 342 344 345 344 344 346 347 345 343 340 337 340 337 330 328 325 324 333 332 329 327 328 327 326 326 329 327 326 328 325 320 316 313
312 311 306 307 312 323 337 337 334 335 333 334 336 339 344 344 344 343 344 341 339 339 336 330 329 327 327 331 333 329 321 319 321 325 323 323 321 320 322 320 316 311 308
312 314 309 307 313 315 336 337 336 335 333 334 338 341 342 345 344 343 343 342 340 338 336 331 331 329 330 330 331 332 329 326 320 314 321 319 318 316 314 315 309 308 306
313 312 314 314 313 316 319 334 335 330 332 332 333 333 337 341 344 343 343 341 341 338 334 334 332 332 331 331 330 328 325 324 323 317 311 312 311 308 310 308 306 305 309
309 310 311 313 316 319 319 323 330 330 329 329 329 332 334 338 341 342 344 341 340 338 334 337 336 335 333 332 331 330 327 325 321 317 313 310 305 303 304 305 305 308 307
Wind_Speed
6 9 12 13 14 15 15 18 17 16 15 17 19 19 18 20 20 20 18 15 12 11 10 10 10 11 13 15 15 13 13 12 11 13 13 13 12 12 12 12 12 10 14
12 10 14 13 15 16 16 16 17 16 15 14 16 17 17 17 18 19 18 15 12 12 10 10 10 11 13 14 14 12 11 10 10 10 12 12 11 11 12 13 13 11 14
11 11 11 13 14 16 17 16 16 16 15 15 15 14 15 16 16 16 15 13 12 11 10 10 9 10 11 12 12 12 9 7 7 8 9 4 5 10 11 12 13 14 14
11 10 10 13 13 15 17 16 17 16 15 15 15 14 13 15 16 15 15 14 12 12 10 9 8 8 9 10 10 10 7 5 4 7 5 4 6 9 10 11 12 13 14
7 7 10 15 14 15 14 16 16 17 17 17 16 15 13 13 14 14 14 13 12 11 10 9 8 7 8 9 8 7 4 3 1 6 5 5 4 7 10 10 10 11 12
5 5 10 14 15 15 15 14 15 16 17 17 17 17 15 14 13 13 13 12 11 11 9 7 6 6 6 8 7 6 4 5 4 4 6 6 5 9 9 10 9 10 12
6 5 7 11 12 14 17 16 15 15 15 16 17 18 17 15 13 13 13 11 10 9 8 6 5 4 4 6 6 5 3 5 5 5 5 5 5 9 8 8 8 10 11
11 9 9 13 12 12 13 15 15 14 14 14 15 16 16 15 14 12 11 10 9 8 8 6 5 4 3 4 5 4 2 4 6 5 5 5 9 9 8 7 7 9 10
7 7 6 8 11 14 12 12 14 14 13 13 13 13 14 14 13 13 12 11 9 7 6 6 5 4 4 2 3 3 2 5 4 3 6 4 9 10 9 8 7 9 9
5 7 9 8 8 7 8 12 12 13 14 13 12 12 12 12 12 12 11 11 11 10 8 6 5 5 5 2 2 2 1 3 4 4 4 4 11 11 10 9 8 9 8
2 4 5 9 10 8 7 9 11 14 13 13 12 12 9 5 7 9 9 11 11 10 9 8 7 7 6 2 1 2 3 2 4 3 3 12 11 11 10 9 8 8 7
5 4 4 6 10 10 7 7 7 7 5 6 7 7 6 7 7 7 9 11 11 10 9 8 7 7 5 2 1 2 2 3 4 4 3 13 11 11 10 10 9 7 7
6 4 7 6 7 7 5 5 5 5 5 5 7 8 9 7 7 5 3 4 4 8 3 4 4 3 4 2 3 3 3 4 3 4 6 13 12 12 10 8 8 7 6
8 12 7 8 7 7 4 5 4 6 6 7 10 12 8 6 7 7 5 5 4 3 4 4 3 4 5 3 4 3 4 3 3 3 8 15 13 13 11 10 8 7 6
8 9 12 12 11 10 7 6 6 7 7 9 9 10 9 7 7 5 5 5 5 4 4 4 4 4 4 5 2 4 4 5 5 3 4 14 11 10 11 10 8 7 6
9 9 10 12 12 10 11 10 9 7 8 8 10 11 13 7 6 6 5 6 5 4 4 4 5 4 4 4 3 3 3 5 5 5 4 6 13 10 10 10 9 7 6
7 8 9 14 12 12 14 12 9 9 9 8 8 11 13 8 7 8 6 5 5 4 5 4 3 2 3 2 4 3 4 5 5 6 5 4 5 11 10 10 9 7 5
8 9 9 11 13 13 11 10 9 9 9 9 9 8 12 12 10 7 6 6 6 4 5 4 3 3 4 2 2 3 3 4 5 5 3 3 3 2 6 8 8 6 5
12 10 10 9 13 15 13 10 10 10 9 8 8 8 10 11 11 10 8 7 6 5 5 4 2 4 3 2 4 3 2 3 4 4 5 4 4 4 2 6 7 6 11
11 10 9 8 10 14 12 7 3 3 2 3 5 8 10 10 12 10 8 9 6 5 4 4 4 2 3 3 2 3 3 3 3 2 4 3 3 4 4 5 5 7 10
9 9 9 8 12 6 6 8 6 8 8 7 7 11 10 10 12 12 10 8 7 8 8 8 4 5 3 4 4 3 4 4 3 2 1 3 4 4 5 5 4 4 5
9 8 9 11 10 11 9 8 4 8 7 11 8 8 10 10 11 12 12 10 9 8 7 6 6 3 3 5 4 3 3 2 4 3 3 2 4 4 6 7 8 7 5
11 13 9 10 12 12 14 5 3 5 3 3 3 4 7 9 10 11 12 10 10 9 9 7 8 8 5 4 2 6 3 3 3 3 5 5 4 4 6 7 8 6 5
11 11 13 7 8 10 12 11 13 10 9 6 8 10 9 12 12 13 11 11 10 9 10 9 8 5 5 5 2 2 2 5 4 2 3 4 5 7 6 6 5 4 3
13 12 10 9 6 7 6 12 12 9 8 5 3 6 6 7 10 12 13 11 10 7 7 10 8 7 4 5 4 3 2 1 4 5 3 2 5 4 4 5 3 3 3
12 16 15 10 7 7 6 8 10 14 10 6 4 5 5 5 7 10 12 10 7 6 6 9 11 10 7 5 4 4 5 4 4 4 5 3 5 3 4 4 3 3 4
Wind_Direction
155 144 154 144 126 116 115 117 116 113 108 111 117 122 127 131 135 136 136 138 137 138 134 128 122 114 109 110 113 109 111 109 105 101 97 90 90 91 85 82 78 73 72
136 144 153 148 136 128 124 123 121 120 119 117 119 125 130 134 137 138 138 137 137 137 134 132 126 121 117 117 115 109 106 110 110 99 100 93 94 92 91 83 81 78 74
138 145 150 149 144 136 133 130 124 126 127 127 127 131 136 138 137 134 131 128 128 137 141 139 133 127 119 116 108 102 102 105 119 114 111 102 90 87 81 83 83 82 78
144 142 147 152 147 144 140 139 134 134 133 131 133 137 141 140 137 133 131 132 138 144 145 140 134 127 115 109 98 91 90 98 115 134 139 132 99 92 89 86 84 82 80
130 143 158 154 150 149 147 146 143 142 142 141 140 139 141 138 135 136 138 138 141 147 147 149 144 131 118 109 96 91 80 71 38 181 134 112 113 106 93 88 85 85 84
114 124 162 155 153 154 154 153 149 147 148 148 146 144 146 145 142 140 138 142 149 155 155 151 147 135 120 108 99 83 43 19 58 94 123 123 103 107 98 90 89 87 79
123 133 151 157 159 161 160 160 156 154 157 156 154 152 153 152 150 149 149 149 150 152 152 164 155 149 136 114 104 99 50 34 106 103 108 106 109 100 99 97 93 89 83
158 156 158 162 165 169 171 164 160 162 164 165 164 160 160 159 156 156 154 153 157 158 167 177 175 183 176 124 108 97 63 62 120 113 110 114 116 119 114 108 102 91 82
151 150 159 166 173 172 176 174 166 166 169 173 171 169 166 163 161 162 162 160 161 166 177 186 191 206 218 159 107 91 47 73 120 121 133 129 137 143 136 126 111 94 86
152 163 165 168 170 168 170 178 181 173 173 176 177 175 172 169 166 170 168 169 171 177 187 201 202 222 236 202 128 113 90 81 160 152 126 163 164 152 144 136 118 103 92
208 193 181 176 175 171 173 181 183 186 182 180 182 182 170 169 173 181 180 181 183 189 192 197 206 224 235 226 195 189 179 171 175 145 158 172 166 153 150 138 128 114 106
247 248 205 189 187 177 180 179 173 181 183 182 178 181 172 186 187 181 187 190 191 197 201 205 214 230 247 143 230 246 191 186 152 154 163 171 172 161 158 152 140 135 111
202 205 211 194 185 179 187 175 176 181 176 181 183 186 192 194 199 186 176 191 187 205 210 208 227 241 244 170 223 223 216 181 162 157 172 172 178 166 165 161 150 144 122
199 217 191 189 181 183 165 170 188 192 186 188 199 199 194 195 201 193 192 195 188 192 203 211 213 238 254 237 216 228 238 191 161 155 174 179 179 173 170 168 165 154 132
227 224 195 186 190 188 181 175 179 198 202 200 196 199 199 193 195 192 199 192 196 187 197 207 216 230 245 268 195 217 217 175 154 151 171 176 179 178 177 171 171 165 143
231 220 204 193 194 181 185 188 187 179 199 201 203 200 202 192 189 187 197 205 199 194 201 197 209 222 236 253 274 233 230 155 152 151 154 177 183 181 185 178 176 172 158
248 249 197 200 195 186 190 188 188 192 189 203 209 196 196 189 189 193 195 204 210 198 194 197 216 227 247 241 274 261 175 156 158 158 161 172 176 189 193 187 175 168 153
254 222 245 202 191 193 195 193 193 191 193 198 201 203 198 192 187 191 198 206 205 186 190 187 178 224 247 223 248 250 179 157 150 155 146 164 162 158 205 195 165 157 132
265 236 224 226 194 190 200 193 195 200 194 195 193 197 204 204 197 193 198 208 186 190 195 185 177 177 212 219 214 230 172 149 137 146 159 190 164 163 144 171 139 124 105
248 250 233 199 236 195 189 190 181 164 221 217 203 197 196 201 201 202 205 203 185 183 189 164 174 183 189 193 132 96 117 119 137 178 177 175 161 137 133 104 102 112 100
270 251 229 219 214 198 182 177 182 194 193 188 207 213 194 194 199 198 213 204 197 202 200 192 159 178 218 158 127 73 50 44 63 33 206 160 153 151 130 112 92 77 75
287 272 249 221 224 192 200 193 168 182 198 200 195 199 194 192 198 202 208 208 196 201 205 174 165 161 192 190 152 106 129 66 53 20 28 110 161 126 113 97 91 86 76
351 338 276 232 219 208 202 151 95 85 65 121 199 195 202 201 202 210 207 205 203 202 205 189 177 172 168 209 224 135 115 164 117 8 28 34 59 72 84 90 88 85 78
348 350 342 281 233 221 199 185 190 187 188 194 197 207 205 200 202 198 214 204 196 201 203 191 181 178 151 154 82 62 82 149 152 137 30 35 52 62 71 78 87 85 80
356 356 358 349 312 285 234 215 189 192 200 194 174 184 184 205 210 203 203 212 194 184 197 186 174 182 178 141 145 144 116 80 91 138 152 108 55 29 66 91 102 82 29
359 360 353 356 344 308 245 229 244 191 191 178 175 196 210 196 205 213 201 200 206 186 181 205 186 176 171 154 149 156 162 160 170 135 99 101 108 22 58 63 59 36 23